GW2254 Weather Reports


time (UTC)temp
C
wind
direction
speed
KPH
gust
KPH
rain 1hr
cm
rain 24hr
cm
rain mn
cm
humidity
%
barometer
mb
20260510230551 25 90 0.0 4.8 0.00 0.00 0.00 45 1013.0
20260510230053 25 80 1.6 6.4 0.00 0.00 0.00 44 1012.9
20260510225553 25 111 0.0 11.3 0.00 0.00 0.00 44 1012.9
20260510225050 26 117 1.6 11.3 0.00 0.00 0.00 42 1012.9
20260510224552 26 121 0.0 6.4 0.00 0.00 0.00 42 1013.0
20260510224050 26 121 0.0 6.4 0.00 0.00 0.00 40 1013.0
20260510223550 26 52 0.0 3.2 0.00 0.00 0.00 39 1012.9
20260510223050 26 47 0.0 3.2 0.00 0.00 0.00 39 1012.9
20260510222550 27 41 0.0 3.2 0.00 0.00 0.00 38 1012.8
20260510222049 27 340 0.0 9.7 0.00 0.00 0.00 35 1012.8
20260510221550 27 340 1.6 9.7 0.00 0.00 0.00 34 1012.9
20260510221049 27 198 0.0 4.8 0.00 0.00 0.00 31 1012.9
20260510220549 27 213 0.0 4.8 0.00 0.00 0.00 32 1012.9
20260510220048 27 204 0.0 6.4 0.00 0.00 0.00 29 1013.0
20260510215550 27 203 0.0 9.7 0.00 0.00 0.00 29 1012.9
20260510215052 27 169 1.6 9.7 0.00 0.00 0.00 30 1012.9
20260510214547 27 227 1.6 6.4 0.00 0.00 0.00 29 1013.0
20260510214047 27 220 0.0 9.7 0.00 0.00 0.00 30 1013.0
20260510213548 27 220 3.2 9.7 0.00 0.00 0.00 29 1013.0
20260510213046 28 205 1.6 8.0 0.00 0.00 0.00 29 1012.9
20260510212546 28 223 1.6 8.0 0.00 0.00 0.00 30 1012.9
20260510212046 28 103 0.0 9.7 0.00 0.00 0.00 29 1012.9
20260510211546 28 211 0.0 12.9 0.00 0.00 0.00 29 1012.9
20260510211046 28 226 8.0 17.7 0.00 0.00 0.00 28 1012.9
20260510210544 28 229 6.4 17.7 0.00 0.00 0.00 27 1012.8
20260510210047 28 246 4.8 9.7 0.00 0.00 0.00 27 1012.7
20260510205544 28 233 4.8 9.7 0.00 0.00 0.00 28 1012.7
20260510205144 28 160 1.6 6.4 0.00 0.00 0.00 28 1012.7
20260510204544 29 198 1.6 11.3 0.00 0.00 0.00 26 1012.7
20260510204044 29 221 4.8 12.9 0.00 0.00 0.00 25 1012.6
20260510203546 30 231 6.4 11.3 0.00 0.00 0.00 26 1012.7
20260510203043 30 183 1.6 11.3 0.00 0.00 0.00 26 1012.6
20260510202543 30 217 3.2 14.5 0.00 0.00 0.00 27 1012.7
20260510202042 30 219 6.4 9.7 0.00 0.00 0.00 25 1012.9
20260510201544 30 208 3.2 11.3 0.00 0.00 0.00 26 1012.8
20260510201042 30 211 4.8 12.9 0.00 0.00 0.00 25 1012.8
20260510200542 30 207 3.2 12.9 0.00 0.00 0.00 25 1012.9
20260510200042 30 194 1.6 8.0 0.00 0.00 0.00 27 1012.8
20260510195540 30 227 1.6 9.7 0.00 0.00 0.00 26 1013.0
20260510195043 30 136 1.6 4.8 0.00 0.00 0.00 28 1013.0
20260510194542 30 182 1.6 12.9 0.00 0.00 0.00 26 1012.9
20260510194040 30 215 4.8 12.9 0.00 0.00 0.00 27 1013.0
20260510193540 30 173 0.0 6.4 0.00 0.00 0.00 27 1013.1
20260510193041 30 116 1.6 14.5 0.00 0.00 0.00 27 1013.2
20260510192539 30 204 4.8 12.9 0.00 0.00 0.00 23 1013.3
20260510192039 30 197 6.4 14.5 0.00 0.00 0.00 24 1013.4
20260510191539 31 216 8.0 14.5 0.00 0.00 0.00 25 1013.4
20260510191038 31 191 1.6 11.3 0.00 0.00 0.00 25 1013.4
20260510190539 31 211 4.8 11.3 0.00 0.00 0.00 24 1013.4
20260510190042 31 287 0.0 8.0 0.00 0.00 0.00 26 1013.4
20260510185536 31 239 1.6 11.3 0.00 0.00 0.00 28 1013.4
20260510185036 31 192 3.2 11.3 0.00 0.00 0.00 26 1013.5
20260510184534 30 189 0.0 8.0 0.00 0.00 0.00 24 1013.7
20260510184037 30 190 1.6 6.4 0.00 0.00 0.00 28 1013.8
20260510183535 30 194 1.6 8.0 0.00 0.00 0.00 24 1013.8
20260510183038 30 171 1.6 12.9 0.00 0.00 0.00 26 1013.7
20260510182535 30 196 3.2 12.9 0.00 0.00 0.00 29 1013.8
20260510182032 30 198 3.2 8.0 0.00 0.00 0.00 28 1013.9
20260510181532 30 141 1.6 8.0 0.00 0.00 0.00 25 1013.7
20260510181032 30 144 3.2 8.0 0.00 0.00 0.00 26 1013.7
20260510180530 30 195 3.2 8.0 0.00 0.00 0.00 30 1013.9
20260510180030 30 198 0.0 9.7 0.00 0.00 0.00 31 1013.8
20260510175529 30 186 3.2 9.7 0.00 0.00 0.00 29 1013.9
20260510175029 30 213 3.2 9.7 0.00 0.00 0.00 28 1013.8
20260510174529 30 225 1.6 6.4 0.00 0.00 0.00 30 1013.9
20260510174032 30 110 1.6 9.7 0.00 0.00 0.00 29 1013.9
20260510173531 30 198 4.8 9.7 0.00 0.00 0.00 28 1014.0
20260510173026 30 176 3.2 9.7 0.00 0.00 0.00 30 1014.0
20260510172525 29 96 0.0 4.8 0.00 0.00 0.00 33 1014.1
20260510172024 28 96 1.6 6.4 0.00 0.00 0.00 33 1014.0
20260510171527 29 126 1.6 9.7 0.00 0.00 0.00 27 1014.1
20260510171021 28 181 3.2 11.3 0.00 0.00 0.00 31 1014.1
20260510170520 28 193 3.2 9.7 0.00 0.00 0.00 31 1014.1
20260510170020 28 194 4.8 11.3 0.00 0.00 0.00 33 1014.1
20260510165520 28 206 4.8 11.3 0.00 0.00 0.00 33 1014.1
20260510165017 28 192 3.2 11.3 0.00 0.00 0.00 35 1014.2
20260510164516 28 207 4.8 11.3 0.00 0.00 0.00 33 1014.2
20260510164019 28 190 6.4 11.3 0.00 0.00 0.00 34 1014.3
20260510163517 28 192 4.8 11.3 0.00 0.00 0.00 34 1014.2
20260510163015 28 247 1.6 8.0 0.00 0.00 0.00 35 1014.2
20260510162518 27 201 3.2 8.0 0.00 0.00 0.00 35 1014.2
20260510162013 27 178 0.0 8.0 0.00 0.00 0.00 37 1014.3
20260510161613 27 182 3.2 8.0 0.00 0.00 0.00 37 1014.4
20260510161013 27 82 1.6 11.3 0.00 0.00 0.00 37 1014.5
20260510160513 28 89 1.6 11.3 0.00 0.00 0.00 36 1014.6
20260510160013 28 196 0.0 8.0 0.00 0.00 0.00 38 1014.6
20260510155516 28 197 0.0 8.0 0.00 0.00 0.00 39 1014.6
20260510155012 28 209 4.8 11.3 0.00 0.00 0.00 36 1014.7
20260510154512 28 179 3.2 11.3 0.00 0.00 0.00 38 1014.8
20260510154013 28 219 1.6 6.4 0.00 0.00 0.00 41 1014.8
20260510153512 27 126 1.6 4.8 0.00 0.00 0.00 38 1014.9
20260510153009 27 182 0.0 6.4 0.00 0.00 0.00 40 1014.9
20260510152512 27 182 1.6 6.4 0.00 0.00 0.00 38 1014.9
20260510152007 27 155 0.0 11.3 0.00 0.00 0.00 40 1014.9
20260510151507 27 202 1.6 11.3 0.00 0.00 0.00 39 1014.8
20260510151006 27 202 1.6 6.4 0.00 0.00 0.00 38 1014.8
20260510150505 27 197 1.6 6.4 0.00 0.00 0.00 42 1014.7
20260510150004 26 205 1.6 6.4 0.00 0.00 0.00 42 1014.8
20260510145503 26 108 1.6 6.4 0.00 0.00 0.00 41 1014.6
20260510145003 26 198 4.8 6.4 0.00 0.00 0.00 40 1014.5
20260510144502 26 142 0.0 3.2 0.00 0.00 0.00 45 1014.6
20260510144002 26 190 0.0 0.0 0.00 0.00 0.00 48 1014.5
20260510143600 26 207 0.0 0.0 0.00 0.00 0.00 48 1014.5
20260510143115 26 207 0.0 3.2 0.00 0.00 0.00 47 1014.4
20260510142600 25 207 0.0 6.4 0.00 0.00 0.00 47 1014.5
20260510142057 25 205 1.6 6.4 0.00 0.00 0.00 47 1014.6
20260510141603 25 311 0.0 0.0 0.00 0.00 0.00 53 1014.6
20260510141054 25 311 0.0 0.0 0.00 0.00 0.00 51 1014.5
20260510140554 25 309 0.0 0.0 0.00 0.00 0.00 53 1014.6
20260510140052 24 300 0.0 3.2 0.00 0.00 0.00 54 1014.6
20260510135550 24 300 0.0 3.2 0.00 0.00 0.00 57 1014.7
20260510135049 23 300 0.0 3.2 0.00 0.00 0.00 65 1014.8
20260510134603 23 303 0.0 0.0 0.00 0.00 0.00 67 1014.7
20260510134045 23 303 0.0 1.6 0.00 0.00 0.00 68 1014.7
20260510133544 22 302 0.0 1.6 0.00 0.00 0.00 68 1014.6
20260510133043 22 285 0.0 0.0 0.00 0.00 0.00 70 1014.6
20260510132542 22 285 0.0 0.0 0.00 0.00 0.00 74 1014.5
20260510132040 21 285 0.0 1.6 0.00 0.00 0.00 75 1014.5
20260510131539 21 285 0.0 3.2 0.00 0.00 0.00 79 1014.5
20260510131039 20 285 0.0 1.6 0.00 0.00 0.00 81 1014.5
20260510130536 20 198 0.0 1.6 0.00 0.00 0.00 83 1014.6
20260510130034 19 198 0.0 1.6 0.00 0.00 0.00 86 1014.6
20260510125532 19 198 0.0 1.6 0.00 0.00 0.00 91 1014.6
20260510125031 18 198 0.0 4.8 0.00 0.00 0.00 94 1014.5
20260510124532 18 198 0.0 1.6 0.00 0.00 0.00 95 1014.4
20260510124030 17 198 0.0 0.0 0.00 0.00 0.00 95 1014.4
20260510123530 17 198 0.0 0.0 0.00 0.00 0.00 95 1014.3
20260510123026 17 198 0.0 0.0 0.00 0.00 0.00 95 1014.3
20260510122525 16 198 0.0 0.0 0.00 0.00 0.00 95 1014.4
20260510122024 16 198 0.0 0.0 0.00 0.00 0.00 95 1014.3
20260510121527 15 198 0.0 0.0 0.00 0.00 0.00 95 1014.1
20260510121022 14 198 0.0 0.0 0.00 0.00 0.00 94 1014.1
20260510120522 13 198 0.0 0.0 0.00 0.00 0.00 93 1014.0
20260510120033 13 198 0.0 0.0 0.00 0.00 0.00 91 1013.9
20260510115519 13 198 0.0 0.0 0.00 0.00 0.00 90 1013.8
20260510115019 12 198 0.0 0.0 0.00 0.00 0.00 89 1013.8
20260510114519 12 198 0.0 0.0 0.00 0.00 0.00 87 1013.9
20260510114019 12 198 0.0 0.0 0.00 0.00 0.00 86 1013.8
20260510113517 12 198 0.0 0.0 0.00 0.00 0.00 86 1013.9
20260510113017 12 198 0.0 0.0 0.00 0.00 0.00 86 1013.7
20260510112516 12 198 0.0 0.0 0.00 0.00 0.00 85 1013.7
20260510112016 12 198 0.0 0.0 0.00 0.00 0.00 85 1013.4
20260510111515 12 198 0.0 3.2 0.00 0.00 0.00 85 1013.4
20260510111014 12 198 0.0 3.2 0.00 0.00 0.00 84 1013.4
20260510110512 12 198 1.6 3.2 0.00 0.00 0.00 83 1013.2
20260510110014 12 198 0.0 0.0 0.00 0.00 0.00 83 1012.9
20260510105511 12 198 0.0 0.0 0.00 0.00 0.00 82 1012.9
20260510105011 12 198 0.0 0.0 0.00 0.00 0.00 82 1012.9
20260510104513 12 198 0.0 0.0 0.00 0.00 0.00 82 1012.9
20260510104011 12 198 0.0 0.0 0.00 0.00 0.00 82 1012.8
20260510103509 12 198 0.0 0.0 0.00 0.00 0.00 82 1012.7
20260510103010 12 198 0.0 0.0 0.00 0.00 0.00 82 1012.7
20260510102508 12 198 0.0 0.0 0.00 0.00 0.00 82 1012.7
20260510102007 12 198 0.0 0.0 0.00 0.00 0.00 82 1012.7
20260510101506 12 198 0.0 0.0 0.00 0.00 0.00 82 1012.4
20260510101005 12 198 0.0 0.0 0.00 0.00 0.00 82 1012.2
20260510100505 12 198 0.0 0.0 0.00 0.00 0.00 82 1012.2
20260510100004 12 198 0.0 1.6 0.00 0.00 0.00 82 1012.2
20260510095504 12 198 0.0 1.6 0.00 0.00 0.00 82 1012.1
20260510095002 12 198 0.0 0.0 0.00 0.00 0.00 81 1012.0
20260510094509 12 198 0.0 0.0 0.00 0.00 0.00 81 1011.9
20260510094001 12 198 0.0 0.0 0.00 0.00 0.00 81 1011.8
20260510093600 12 198 0.0 0.0 0.00 0.00 0.00 81 1011.8
20260510093102 12 198 0.0 0.0 0.00 0.00 0.00 81 1011.7
20260510092600 12 198 0.0 0.0 0.00 0.00 0.00 81 1011.8
20260510092102 12 198 0.0 0.0 0.00 0.00 0.00 81 1011.8
20260510091558 12 198 0.0 0.0 0.00 0.00 0.00 81 1011.7
20260510091058 12 198 0.0 0.0 0.00 0.00 0.00 81 1011.6
20260510090557 13 198 0.0 0.0 0.00 0.00 0.00 81 1011.6
20260510090058 13 198 0.0 0.0 0.00 0.00 0.00 81 1011.5
20260510085556 13 198 0.0 0.0 0.00 0.00 0.00 81 1011.5
20260510085055 13 198 0.0 0.0 0.00 0.00 0.00 81 1011.5
20260510084555 13 198 0.0 0.0 0.00 0.00 0.00 80 1011.5
20260510084055 13 198 0.0 0.0 0.00 0.00 0.00 80 1011.4
20260510083554 13 198 0.0 0.0 0.00 0.00 0.00 80 1011.3
20260510083054 13 198 0.0 0.0 0.00 0.00 0.00 80 1011.3
20260510082555 13 198 0.0 0.0 0.00 0.00 0.00 80 1011.3
20260510082053 13 198 0.0 0.0 0.00 0.00 0.00 80 1011.2
20260510081613 13 198 0.0 0.0 0.00 0.00 0.00 80 1011.4
20260510081052 13 198 0.0 0.0 0.00 0.00 0.00 80 1011.4
20260510080552 13 198 0.0 0.0 0.00 0.00 0.00 80 1011.4
20260510080056 13 198 0.0 0.0 0.00 0.00 0.00 80 1011.4
20260510075550 13 198 0.0 0.0 0.00 0.00 0.00 80 1011.4
20260510075050 13 198 0.0 0.0 0.00 0.00 0.00 80 1011.3
20260510074552 13 198 0.0 0.0 0.00 0.00 0.00 79 1011.2
20260510074049 13 198 0.0 0.0 0.00 0.00 0.00 79 1011.2
20260510073549 13 198 0.0 0.0 0.00 0.00 0.00 79 1011.1
20260510073048 14 198 0.0 0.0 0.00 0.00 0.00 79 1011.1
20260510072548 14 198 0.0 0.0 0.00 0.00 0.00 79 1011.1
20260510072052 14 198 0.0 0.0 0.00 0.00 0.00 79 1011.0
20260510071547 14 198 0.0 0.0 0.00 0.00 0.00 79 1011.1
20260510071046 14 198 0.0 1.6 0.00 0.00 0.00 79 1011.2
20260510070546 14 198 0.0 1.6 0.00 0.00 0.00 78 1011.1
20260510070047 14 198 0.0 1.6 0.00 0.00 0.00 78 1011.1
20260510065545 14 198 0.0 0.0 0.00 0.00 0.00 78 1011.1
20260510065045 14 198 0.0 0.0 0.00 0.00 0.00 78 1011.0
20260510064544 14 198 0.0 0.0 0.00 0.00 0.00 78 1011.0
20260510064044 14 198 0.0 0.0 0.00 0.00 0.00 78 1011.1
20260510063543 14 198 0.0 0.0 0.00 0.00 0.00 77 1011.2
20260510063042 14 198 0.0 0.0 0.00 0.00 0.00 77 1011.2
20260510062541 15 198 0.0 0.0 0.00 0.00 0.00 77 1011.1
20260510062041 15 198 0.0 0.0 0.00 0.00 0.00 77 1011.2
20260510061541 15 198 0.0 0.0 0.00 0.00 0.00 77 1011.3
20260510061042 15 198 0.0 0.0 0.00 0.00 0.00 77 1011.4
20260510060540 15 198 0.0 0.0 0.00 0.00 0.00 77 1011.3
20260510060048 15 198 0.0 0.0 0.00 0.00 0.00 77 1011.4
20260510055538 15 198 0.0 0.0 0.00 0.00 0.00 77 1011.4
20260510055037 15 198 0.0 0.0 0.00 0.00 0.00 76 1011.4
20260510054537 15 198 0.0 0.0 0.00 0.00 0.00 76 1011.5
20260510054036 15 198 0.0 0.0 0.00 0.00 0.00 76 1011.5
20260510053536 15 198 0.0 0.0 0.00 0.00 0.00 76 1011.5
20260510053035 15 198 0.0 0.0 0.00 0.00 0.00 76 1011.6
20260510052535 15 198 0.0 0.0 0.00 0.00 0.00 76 1011.6
20260510052035 15 198 0.0 0.0 0.00 0.00 0.00 76 1011.6
20260510051541 15 198 0.0 0.0 0.00 0.00 0.00 75 1011.7
20260510051035 15 198 0.0 0.0 0.00 0.00 0.00 75 1011.6
20260510050533 15 198 0.0 0.0 0.00 0.00 0.00 74 1011.5
20260510050032 15 198 0.0 0.0 0.00 0.00 0.00 74 1011.7
20260510045534 15 198 0.0 0.0 0.00 0.00 0.00 74 1011.7
20260510045031 16 198 0.0 0.0 0.00 0.00 0.00 74 1011.7
20260510044533 16 198 0.0 0.0 0.00 0.00 0.00 73 1011.7
20260510044032 16 198 0.0 0.0 0.00 0.00 0.00 72 1011.5
20260510043528 16 198 0.0 0.0 0.00 0.00 0.00 72 1011.5
20260510043028 16 198 0.0 0.0 0.00 0.00 0.00 72 1011.6
20260510042528 16 198 0.0 0.0 0.00 0.00 0.00 72 1011.5
20260510042025 16 198 0.0 0.0 0.00 0.00 0.00 71 1011.4
20260510041530 16 198 0.0 0.0 0.00 0.00 0.00 70 1011.3
20260510041024 16 198 0.0 0.0 0.00 0.00 0.00 70 1011.4
20260510040524 16 198 0.0 0.0 0.00 0.00 0.00 70 1011.4
20260510040022 16 198 0.0 0.0 0.00 0.00 0.00 69 1011.4
20260510035522 17 198 0.0 0.0 0.00 0.00 0.00 69 1011.4
20260510035024 17 198 0.0 0.0 0.00 0.00 0.00 69 1011.3
20260510034522 17 198 0.0 0.0 0.00 0.00 0.00 70 1011.2
20260510034021 17 198 0.0 0.0 0.00 0.00 0.00 69 1011.2
20260510033521 17 198 0.0 0.0 0.00 0.00 0.00 69 1011.2
20260510033021 17 198 0.0 0.0 0.00 0.00 0.00 69 1011.2
20260510032522 17 198 0.0 0.0 0.00 0.00 0.00 69 1011.1
20260510032021 17 198 0.0 0.0 0.00 0.00 0.00 69 1011.1
20260510031521 17 198 0.0 0.0 0.00 0.00 0.00 69 1011.0
20260510031021 17 198 0.0 3.2 0.00 0.00 0.00 69 1011.1
20260510030520 17 198 0.0 3.2 0.00 0.00 0.00 69 1011.1
20260510030020 17 198 0.0 0.0 0.00 0.00 0.00 68 1011.0
20260510025521 17 198 0.0 0.0 0.00 0.00 0.00 68 1010.9
20260510025023 17 198 0.0 0.0 0.00 0.00 0.00 68 1011.0
20260510024520 17 198 0.0 1.6 0.00 0.00 0.00 68 1011.1
20260510024019 17 198 0.0 1.6 0.00 0.00 0.00 68 1011.0
20260510023519 17 198 0.0 3.2 0.00 0.00 0.00 67 1011.0
20260510023034 18 196 0.0 0.0 0.00 0.00 0.00 67 1010.9
20260510022519 18 196 0.0 0.0 0.00 0.00 0.00 67 1010.9
20260510022019 18 196 0.0 4.8 0.00 0.00 0.00 67 1010.9
20260510021519 18 194 0.0 4.8 0.00 0.00 0.00 67 1010.7
20260510021018 18 209 0.0 8.0 0.00 0.00 0.00 67 1010.7
20260510020518 18 209 1.6 8.0 0.00 0.00 0.00 67 1010.7
20260510020018 18 201 0.0 6.4 0.00 0.00 0.00 67 1010.7
20260510015517 18 230 0.0 3.2 0.00 0.00 0.00 66 1010.7
20260510015017 18 218 0.0 3.2 0.00 0.00 0.00 65 1010.7
20260510014517 18 218 0.0 3.2 0.00 0.00 0.00 65 1010.7
20260510014017 18 218 0.0 3.2 0.00 0.00 0.00 64 1010.6
20260510013517 18 218 0.0 0.0 0.00 0.00 0.00 63 1010.6
20260510013017 19 218 0.0 0.0 0.00 0.00 0.00 63 1010.7
20260510012516 19 218 0.0 0.0 0.00 0.00 0.00 63 1010.7
20260510012016 19 218 0.0 0.0 0.00 0.00 0.00 63 1010.5
20260510011522 20 218 0.0 0.0 0.00 0.00 0.00 62 1010.5
20260510011019 20 218 0.0 0.0 0.00 0.00 0.00 62 1010.4
20260510010516 20 218 0.0 0.0 0.00 0.00 0.00 60 1010.5
20260510010022 20 218 0.0 0.0 0.00 0.00 0.00 60 1010.4
20260510005515 20 218 0.0 0.0 0.00 0.00 0.00 59 1010.4
20260510005014 20 218 0.0 0.0 0.00 0.00 0.00 58 1010.4
20260510004514 21 218 0.0 0.0 0.00 0.00 0.00 57 1010.3
20260510004014 21 218 0.0 0.0 0.00 0.00 0.00 56 1010.3
20260510003515 21 218 0.0 1.6 0.00 0.00 0.00 56 1010.0
20260510003015 21 217 0.0 1.6 0.00 0.00 0.00 56 1010.0
20260510002514 21 218 0.0 0.0 0.00 0.00 0.00 55 1010.0
20260510002014 21 218 0.0 0.0 0.00 0.00 0.00 55 1009.8
20260510001516 22 218 0.0 0.0 0.00 0.00 0.00 55 1009.8
20260510001014 22 218 0.0 3.2 0.00 0.00 0.00 54 1009.7
20260510000514 22 218 0.0 11.3 0.00 0.00 0.00 54 1009.6
20260510000013 22 180 4.8 11.3 0.00 0.00 0.00 53 1009.6
20260509235513 22 205 3.2 6.4 0.00 0.00 0.00 52 1009.4
20260509235013 22 213 1.6 8.0 0.00 0.00 0.00 52 1009.3
20260509234512 22 207 0.0 8.0 0.00 0.00 0.00 52 1009.4
20260509234013 22 205 1.6 11.3 0.00 0.00 0.00 51 1009.4
20260509233512 22 202 4.8 11.3 0.00 0.00 0.00 51 1009.4
20260509233012 22 209 4.8 14.5 0.00 0.00 0.00 51 1009.4
20260509232512 23 202 6.4 12.9 0.00 0.00 0.00 50 1009.4
20260509232011 23 202 3.2 11.3 0.00 0.00 0.00 50 1009.4
20260509231512 23 204 3.2 11.3 0.00 0.00 0.00 50 1009.3